Lexington Weather

Lexington, Massachusetts, USA

36°F
1/28/2020 4:22am 
  • Lexington Conditions: Overcast
  • Temperature: 36.1°F / 2.3°CColder 0.2°F than last hour.
  • Dew Point: 29.7°FIncreased 0.2°Fsince last hour.
  • Relative Humidity: 77%Increased 1.0% since last hour.
  • Wind: Wind from NNW NNW 2 mph, 10-min avg: 2 mph, gust: 3 mph
  • Barometer: 29.62 in Steady
  • Visibility: 10 miles
  • Rain Today: 0.00 in
  •   

Regional Weather Roundup
for Boston / Norton, MA

        
000
ASUS41 KBOX 272300
RWRBOX

REGIONAL WEATHER ROUNDUP
NATIONAL WEATHER SERVICE BOSTON/NORTON MA
600 PM EST MON JAN 27 2020

NOTE:  "FAIR" INDICATES FEW OR NO CLOUDS BELOW 12,000 FEET WITH NO 
SIGNIFICANT WEATHER AND/OR OBSTRUCTIONS TO VISIBILITY.

MAZALL-280000-
EASTERN MASSACHUSETTS
  
CITY           SKY/WX    TMP DP  RH WIND       PRES   REMARKS
BOSTON         MOCLDY    44  26  49 W12G18    29.59R                  
BEVERLY        CLOUDY    42  27  55 W7        29.57R                  
LAWRENCE       CLOUDY    41  27  57 W8        29.59R                  
BEDFORD        MOCLDY    41  25  53 W5        29.58R                  
BLUE HILL        N/A     37  26  64 W10       29.57R WCI  30          
NORWOOD        CLOUDY    44  26  49 W8        29.60R                  
MARSHFIELD     NOT AVBL                                               
PLYMOUTH       FAIR      38  27  64 W7        29.59R                  
TAUNTON        CLOUDY    41  26  55 W5        29.60R                  
NEW BEDFORD    CLOUDY    41  26  55 W8        29.60R                  
$$

MAZALL-280000-
CAPE COD AND THE ISLANDS
  
CITY           SKY/WX    TMP DP  RH WIND       PRES   REMARKS
FALMOUTH       MOCLDY    41  27  56 NW10      29.59R                  
HYANNIS        NOT AVBL                                               
CHATHAM        CLOUDY    42  28  57 W5        29.59R                  
PROVINCETOWN   CLOUDY    41  32  70 W12       29.59R                  
NANTUCKET      CLOUDY    41  34  76 W12       29.61R                  
MARTHAS VNYRD  CLOUDY    42  31  64 W9        29.61R                  
$$
 
MAZALL-280000-
CENTRAL AND WESTERN MASSACHUSETTS
  
CITY           SKY/WX    TMP DP  RH WIND       PRES   REMARKS
WORCESTER      CLOUDY    36  26  67 W8        29.58R WCI  30          
FITCHBURG      CLOUDY    40  27  59 W9G20     29.60R                  
ORANGE         CLOUDY    39  26  59 W5        29.61R                  
SPRINGFIELD    NOT AVBL                                               
WESTFIELD      CLOUDY    39  27  62 NW6       29.64R                  
NORTH ADAMS    CLOUDY    36  27  69 W13       29.62R WCI  27          
PITTSFIELD     CLOUDY    35  27  72 W14       29.60R WCI  26          
$$
 
RIZALL-280000-
RHODE ISLAND
  
CITY           SKY/WX    TMP DP  RH WIND       PRES   REMARKS
PROVIDENCE     MOCLDY    42  27  55 W12       29.62R                  
NEWPORT        CLOUDY    42  27  55 W10       29.61R                  
BLOCK ISLAND   CLOUDY    41  33  73 W9G18     29.65R                  
SMITHFIELD     CLOUDY    39  27  62 W10       29.60R                  
WESTERLY       CLOUDY    44  26  49 CALM      29.65R                  
$$
 
CTZALL-280000-
CONNECTICUT
  
CITY           SKY/WX    TMP DP  RH WIND       PRES   REMARKS
BRADLEY INTL   CLOUDY    40  28  62 NW8       29.65R                  
HARTFORD       CLOUDY    42  29  59 NW6       29.66R                  
BRIDGEPORT     CLOUDY    43  28  55 W7        29.67R                  
DANBURY        CLOUDY    39  27  62 W7        29.67R                  
GROTON         NOT AVBL                                               
NEW HAVEN      CLOUDY    43  30  60 W3        29.66R                  
CHESTER        NOT AVBL                                               
MERIDEN        CLOUDY    41  28  60 W7        29.66R                  
WILLIMANTIC    CLOUDY    40  28  62 VRB3      29.65R                  
OXFORD         CLOUDY    39  29  67 W5        29.65R                  
$$

MEZ002-015-021-024-NHZ003-005-008-011-012-014-VTZ005-008-280000-
NORTHERN NEW ENGLAND
  
CITY           SKY/WX    TMP DP  RH WIND       PRES   REMARKS
PORTLAND ME    CLOUDY    40  29  64 W3        29.54R                  
BANGOR ME      CLOUDY    38  30  73 W3        29.50R                  
CONCORD NH     CLOUDY    38  28  67 W10       29.57R WCI  31          
MANCHESTER NH  MOCLDY    41  26  55 NW12G17   29.57R                  
NASHUA NH      CLOUDY    40  28  62 W3        29.59R                  
PORTSMOUTH NH  NOT AVBL                                               
JAFFREY NH     CLOUDY    37  26  64 W5        29.57R                  
KEENE NH       CLOUDY    38  28  67 VRB5      29.60R                  
BURLINGTON VT  FLURRIES  35  32  88 NW3       29.62R                  
MT. WASHINGTON NOT AVBL                                               
$$

NYZ052-076-280000-
EASTERN NEW YORK
  
CITY           SKY/WX    TMP DP  RH WIND       PRES   REMARKS
ALBANY         MOCLDY    38  28  67 W13       29.67R WCI  30          
NEW YORK CITY  CLOUDY    42  27  55 NW18      29.70R                  
$$
 
ANZALL-280000-
MARINE OBSERVATIONS
  
STATION/POSITION TIME  TEMP    WIND        PRES    VSBY  WAVE
                       AIR SEA DIR/SP/G                  HT/PER
                 (UTC) (F)     (DEG/KT/KT) (MB)    (MI)  (FT/S)
BOSTON BUOY      2150   43 43  280/ 16/ 17 1000.4          3/10
BUZZARDS BAY     2200   41     270/ 17/ 18 1002.6R
NANTUCKET SOUND  2200                      1001.8
MASS BAY-STELLWA 2204   42 41  300/ 14/ 16  999.0R  1 7/8  4/11
ISLE OF SHOALS   2200   42     290/ 16/ 18 1000.0R
S OF BLOCK IS    2230      44                N/A           6/ 7
$$

......................KEY.........................
  SKY/WX - SKY CONDITION/PRESENT WEATHER
  TMP    - TEMPERATURE IN FAHRENHEIT
  DWPT   - DEWPOINT IN FAHRENHEIT
  RH     - RELATIVE HUMIDITY IN PERCENT
  WIND   - DIRECTION AND SPEED IN MPH
  PRES   - MEAN SEA LEVEL PRESSURE IN INCHES OF HG
  WCI    - WIND CHILL INDEX
  VSB    - VISIBILITY IN MILES
  HX     - HEAT INDEX
  TC     - TEMPERATURE IN CELSIUS
  VRB    - VARIABLE WIND DIRECTION
  N/A    - NOT AVAILABLE
  
      

Other recent Regional Weather Roundups

Tue Jan 28, 4:10am

Tue Jan 28, 4:00am

Tue Jan 28, 3:10am

Tue Jan 28, 3:01am

Tue Jan 28, 2:10am

Tue Jan 28, 2:00am

Tue Jan 28, 1:10am

Tue Jan 28, 1:00am

Tue Jan 28, 12:10am

Tue Jan 28, 12:01am

Mon Jan 27, 11:10pm

Mon Jan 27, 11:00pm

Mon Jan 27, 10:10pm

Mon Jan 27, 10:00pm

Mon Jan 27, 9:10pm

Mon Jan 27, 9:00pm

Mon Jan 27, 8:10pm

Mon Jan 27, 8:01pm

Mon Jan 27, 7:10pm

Mon Jan 27, 7:00pm

Mon Jan 27, 6:10pm

Mon Jan 27, 5:10pm

Mon Jan 27, 5:00pm

Mon Jan 27, 4:10pm

Mon Jan 27, 4:00pm

Mon Jan 27, 3:10pm

Mon Jan 27, 3:00pm

Mon Jan 27, 2:10pm

Mon Jan 27, 2:00pm

Mon Jan 27, 1:10pm

Mon Jan 27, 1:00pm

Mon Jan 27, 12:10pm

Mon Jan 27, 12:00pm

Mon Jan 27, 11:10am

Mon Jan 27, 11:01am

Mon Jan 27, 10:10am

Mon Jan 27, 10:00am

Mon Jan 27, 9:10am

Mon Jan 27, 9:00am

Mon Jan 27, 8:10am

Mon Jan 27, 8:00am

Mon Jan 27, 7:10am

Mon Jan 27, 7:00am

Mon Jan 27, 6:10am

Mon Jan 27, 6:00am

Mon Jan 27, 5:10am

Mon Jan 27, 5:00am

Mon Jan 27, 4:10am

Mon Jan 27, 4:01am

Mon Jan 27, 3:10am

Mon Jan 27, 3:00am

Mon Jan 27, 2:10am

Mon Jan 27, 2:00am

Mon Jan 27, 1:10am

Mon Jan 27, 1:00am

Mon Jan 27, 12:10am

Mon Jan 27, 12:00am

Sun Jan 26, 11:10pm

Sun Jan 26, 11:00pm

Sun Jan 26, 10:10pm

Sun Jan 26, 10:00pm

Sun Jan 26, 9:10pm

Sun Jan 26, 9:01pm

Sun Jan 26, 8:10pm

Sun Jan 26, 8:00pm

Sun Jan 26, 7:10pm

Sun Jan 26, 7:00pm

Sun Jan 26, 6:10pm

Sun Jan 26, 6:01pm

Sun Jan 26, 5:10pm

Sun Jan 26, 5:01pm

Sun Jan 26, 4:10pm

Sun Jan 26, 4:00pm

Sun Jan 26, 3:10pm

Sun Jan 26, 3:01pm

Sun Jan 26, 2:10pm

Sun Jan 26, 2:01pm

Sun Jan 26, 1:10pm

Sun Jan 26, 1:00pm

Sun Jan 26, 12:10pm

Sun Jan 26, 12:00pm

Sun Jan 26, 11:10am

Sun Jan 26, 11:01am

Sun Jan 26, 10:10am

Sun Jan 26, 10:01am

Sun Jan 26, 9:10am

Sun Jan 26, 9:00am

Sun Jan 26, 8:10am

Sun Jan 26, 8:00am

Sun Jan 26, 7:10am

Sun Jan 26, 7:00am

Sun Jan 26, 6:10am

Sun Jan 26, 6:00am

Sun Jan 26, 5:10am

Sun Jan 26, 5:00am

Sun Jan 26, 4:10am

Sun Jan 26, 4:01am

Sun Jan 26, 3:10am

Sun Jan 26, 3:01am

Sun Jan 26, 2:10am

Sun Jan 26, 2:00am

Sun Jan 26, 1:10am

Sun Jan 26, 1:00am

Sun Jan 26, 12:10am

Sun Jan 26, 12:00am

Sat Jan 25, 11:10pm

Sat Jan 25, 11:00pm

Sat Jan 25, 10:10pm

Sat Jan 25, 10:01pm

Sat Jan 25, 9:10pm

Sat Jan 25, 9:01pm

Sat Jan 25, 8:10pm

Sat Jan 25, 8:01pm

Sat Jan 25, 7:10pm

Sat Jan 25, 7:01pm

Sat Jan 25, 6:10pm

Sat Jan 25, 6:01pm

Sat Jan 25, 5:10pm

Sat Jan 25, 5:01pm

Sat Jan 25, 4:10pm

Sat Jan 25, 4:00pm

Sat Jan 25, 3:10pm

Sat Jan 25, 3:01pm

Sat Jan 25, 2:10pm

Sat Jan 25, 2:00pm

Sat Jan 25, 1:10pm

Sat Jan 25, 1:00pm

Sat Jan 25, 12:10pm

Sat Jan 25, 12:00pm

Sat Jan 25, 11:10am

Sat Jan 25, 11:00am

Sat Jan 25, 10:10am

Sat Jan 25, 10:00am

Sat Jan 25, 9:10am

Sat Jan 25, 9:00am

Sat Jan 25, 8:10am

Sat Jan 25, 8:01am

Sat Jan 25, 7:10am

Sat Jan 25, 7:00am

Sat Jan 25, 6:10am

Sat Jan 25, 6:00am

Sat Jan 25, 5:10am

Sat Jan 25, 5:00am

Meta data:

ID: 2c78af6c-1667-4051-8f29-ab3b7852e118
Link: https://api.weather.gov/products/2c78af6c-1667-4051-8f29-ab3b7852e118